Location: Esp�n
(42.4593°N, 0.2047°W)
Time: 03:47:55
(UTC+00:00)

STARLINK-70 - Pass Details

Date: 07 June 2020
Orbit: 468 x 469 km, 53.0° (Epoch: 04 July)

Event Time Altitude Azimuth Distance (km) Brightness Sun altitude
Exits shadow 02:20:45 38° 178° (S) 730 3.8 -17.1°
Maximum altitude 02:21:36 46° 137° (SE) 633 3.8 -17.0°
Drops below altitude 10° 02:25:07 10° 63° (ENE) 1,620 7.0 -16.6°
Enters shadow 03:19:05 -73° 235° (SW) 12,702 10.4 -10.2°
